Weather History for Orange, MA

Change the Weather History Date:

Wednesday, January 2, 2013

  Actual Average Record
Temperature  
Mean Temperature 16 °F -  
Max Temperature 25 °F 32 °F 51 °F (2000)
Min Temperature 6 °F 15 °F -17 °F (1999)
Degree Days  
Heating Degree Days 49    
Moisture  
Dew Point 5 °F    
Average Humidity 62    
Maximum Humidity 77    
Minimum Humidity 53    
Precipitation  
Precipitation 0.00 in - - ()
Sea Level Pressure  
Sea Level Pressure 30.00 in    
Wind  
Wind Speed 6 mph (WNW)    
Max Wind Speed 21 mph    
Max Gust Speed 28 mph    
Visibility 10 miles    
Events      
Averages and records for this station are not official NWS values.
T = Trace of Precipitation, MM = Missing Value Source: NWS Daily Summary

Daily Weather History Graph

Daily Weather History Graph

Search for Another Location

Airport:

Trip Planner

Search our weather history database for the weather conditions in past years. The results will help you decide how hot, cold, wet, or windy it might be!

Date:

Astronomy

Jan. 02, 2013 Rise Set
Actual Time 7:19 AM EST 4:27 PM EST
Civil Twilight 6:47 AM EST 4:59 PM EST
Nautical Twilight 6:11 AM EST 5:35 PM EST
Astronomical Twilight 5:37 AM EST 6:09 PM EST
Moon 10:04 PM EST (1/2) 9:52 AM EST (1/2)
Length of Visible Light 10h 12m
Length of Day
9h 08m
Waning Gibbous, 75% of the Moon is Illuminated
Jan 2
Waning Gibbous
Jan 4
Last Quarter
Jan 11
New
Jan 18
First Quarter
Jan 26
Full

Hourly Weather History & Observations

Time (EST) Temp. Windchill Dew Point Humidity Pressure Visibility Wind Dir Wind Speed Gust Speed Precip Events Conditions
12:52 AM 10.0 °F - 1.0 °F 67% 29.94 in 10.0 mi Calm Calm - N/A   Clear
1:52 AM 10.9 °F 2.9 °F 1.0 °F 64% 29.96 in 10.0 mi NW 4.6 mph - N/A   Clear
2:52 AM 15.1 °F 4.2 °F 3.0 °F 59% 29.96 in 10.0 mi West 8.1 mph - N/A   Clear
3:52 AM 14.0 °F 3.9 °F 3.9 °F 64% 29.94 in 10.0 mi West 6.9 mph - N/A   Clear
4:52 AM 14.0 °F 3.9 °F 3.9 °F 64% 29.95 in 10.0 mi West 6.9 mph - N/A   Clear
5:52 AM 14.0 °F 5.1 °F 3.0 °F 62% 29.95 in 10.0 mi West 5.8 mph - N/A   Clear
6:52 AM 9.0 °F -2.2 °F 3.0 °F 77% 29.95 in 10.0 mi SW 6.9 mph - N/A   Clear
7:52 AM 12.0 °F 5.9 °F 3.9 °F 70% 29.94 in 10.0 mi WSW 3.5 mph - N/A   Overcast
8:52 AM 16.0 °F 8.8 °F 5.0 °F 62% 29.95 in 10.0 mi Variable 4.6 mph - N/A   Overcast
10:52 AM 21.0 °F 12.4 °F 10.9 °F 65% 29.96 in 10.0 mi SSW 6.9 mph - N/A   Overcast
11:52 AM 23.0 °F 13.9 °F 12.0 °F 63% 29.94 in 10.0 mi WSW 8.1 mph - N/A   Overcast
12:52 PM 25.0 °F 13.6 °F 12.0 °F 58% 29.93 in 10.0 mi WNW 12.7 mph 17.3 mph N/A   Overcast
1:52 PM 25.0 °F 10.6 °F 10.0 °F 53% 29.94 in 10.0 mi WNW 20.7 mph 27.6 mph N/A   Scattered Clouds
2:52 PM 25.0 °F 14.8 °F 10.9 °F 55% 29.96 in 10.0 mi WNW 10.4 mph - N/A   Overcast
3:52 PM 23.0 °F 12.4 °F 10.9 °F 60% 30.00 in 10.0 mi WNW 10.4 mph - 0.00 in   Overcast
4:52 PM 21.9 °F 9.8 °F 9.0 °F 58% 30.02 in 10.0 mi NW 12.7 mph - N/A   Clear
5:52 PM 19.0 °F 12.3 °F 7.0 °F 59% 30.03 in 10.0 mi NNW 4.6 mph - N/A   Clear
6:52 PM 17.1 °F 11.7 °F 6.1 °F 62% 30.06 in 10.0 mi NE 3.5 mph - N/A   Clear
7:52 PM 14.0 °F 5.1 °F 3.9 °F 64% 30.08 in 10.0 mi NNW 5.8 mph - N/A   Clear
8:52 PM 12.0 °F 5.9 °F 1.9 °F 64% 30.11 in 10.0 mi North 3.5 mph - N/A   Clear
9:52 PM 10.0 °F -4.5 °F -0.9 °F 61% 30.14 in 10.0 mi NNW 11.5 mph - N/A   Clear
10:52 PM 7.0 °F -5.7 °F -2.9 °F 64% 30.15 in 10.0 mi NW 8.1 mph 18.4 mph N/A   Clear
11:52 PM 6.1 °F -8.7 °F -5.1 °F 60% 30.16 in 10.0 mi NW 10.4 mph - N/A   Clear